Location: La B�doule
(43.2468°N, 5.5934°E)
Time: 23:20:56
(UTC+00:00)

STARLINK-60 - Pass Details

Date: 07 June 2020
Orbit: 382 x 389 km, 53.0° (Epoch: 11 July)

Event Time Altitude Azimuth Distance (km) Brightness Sun altitude
Rises 02:10:31 0° 301° (WNW) 2,278 6.7 -15.1°
Reaches altitude 10° 02:12:37 10° 295° (WNW) 1,423 5.6 -14.9°
Maximum altitude 02:15:40 44° 221° (SW) 550 3.1 -14.5°
Drops below altitude 10° 02:18:44 10° 148° (SSE) 1,424 5.5 -14.2°
Sets 02:20:50 0° 142° (SE) 2,280 6.6 -13.9°
